| time (UTC) | temp F | wind direction | speed MPH | gust MPH | rain 1hr in | rain 24hr in | rain mn in | humidity % | barometer mb |
| 20260507084518 | 35 | 239 | 0.0 | 7.0 | 0.00 | 0.00 | 0.00 | 65 | 1011.2 |
| 20260507083028 | 35 | 230 | 2.0 | 7.0 | 0.00 | 0.00 | 0.00 | 65 | 1011.2 |
| 20260507081512 | 35 | 233 | 1.0 | 5.0 | 0.00 | 0.00 | 0.00 | 65 | 1011.3 |
| 20260507080013 | 35 | 232 | 2.0 | 5.0 | 0.00 | 0.00 | 0.00 | 65 | 1011.3 |
| 20260507074520 | 35 | 225 | 1.0 | 5.0 | 0.00 | 0.00 | 0.00 | 66 | 1011.4 |
| 20260507073024 | 35 | 191 | 1.0 | 6.0 | 0.00 | 0.00 | 0.00 | 66 | 1011.6 |
| 20260507071506 | 35 | 176 | 1.0 | 3.0 | 0.00 | 0.00 | 0.00 | 66 | 1011.8 |
| 20260507070016 | 35 | 175 | 0.0 | 3.0 | 0.00 | 0.00 | 0.00 | 65 | 1011.9 |
| 20260507064519 | 35 | 174 | 0.0 | 5.0 | 0.00 | 0.00 | 0.00 | 65 | 1011.8 |
| 20260507063024 | 35 | 162 | 0.0 | 5.0 | 0.00 | 0.00 | 0.00 | 66 | 1012.0 |
| 20260507061529 | 35 | 159 | 0.0 | 0.0 | 0.00 | 0.00 | 0.00 | 66 | 1012.0 |
| 20260507060014 | 35 | 157 | 0.0 | 0.0 | 0.00 | 0.00 | 0.00 | 63 | 1012.1 |
| 20260507054522 | 36 | 158 | 0.0 | 6.0 | 0.00 | 0.00 | 0.00 | 61 | 1012.2 |
| 20260507053010 | 37 | 155 | 1.0 | 7.0 | 0.00 | 0.00 | 0.00 | 59 | 1012.3 |
| 20260507051512 | 37 | 152 | 1.0 | 5.0 | 0.00 | 0.00 | 0.00 | 58 | 1012.5 |
| 20260507050017 | 37 | 148 | 1.0 | 5.0 | 0.00 | 0.00 | 0.00 | 56 | 1012.5 |
| 20260507044504 | 38 | 153 | 0.0 | 5.0 | 0.00 | 0.00 | 0.00 | 56 | 1012.7 |
| 20260507043009 | 39 | 161 | 2.0 | 6.0 | 0.00 | 0.00 | 0.00 | 54 | 1012.8 |
| 20260507041528 | 40 | 151 | 0.0 | 6.0 | 0.00 | 0.00 | 0.00 | 52 | 1013.1 |
| 20260507040020 | 41 | 105 | 0.0 | 3.0 | 0.00 | 0.00 | 0.00 | 50 | 1013.2 |
| 20260507034509 | 41 | 104 | 0.0 | 4.0 | 0.00 | 0.00 | 0.00 | 50 | 1013.2 |
| 20260507033012 | 41 | 121 | 1.0 | 4.0 | 0.00 | 0.00 | 0.00 | 49 | 1013.3 |
| 20260507031511 | 42 | 105 | 1.0 | 6.0 | 0.00 | 0.00 | 0.00 | 49 | 1013.3 |
| 20260507030019 | 43 | 96 | 1.0 | 3.0 | 0.00 | 0.00 | 0.00 | 48 | 1013.3 |
| 20260507024505 | 44 | 91 | 1.0 | 6.0 | 0.00 | 0.00 | 0.00 | 46 | 1013.2 |
| 20260507023009 | 45 | 121 | 0.0 | 3.0 | 0.00 | 0.00 | 0.00 | 45 | 1013.2 |
| 20260507021516 | 46 | 121 | 0.0 | 3.0 | 0.00 | 0.00 | 0.00 | 44 | 1013.1 |
| 20260507020027 | 46 | 119 | 0.0 | 5.0 | 0.00 | 0.00 | 0.00 | 43 | 1013.1 |
| 20260507014542 | 47 | 80 | 3.0 | 8.0 | 0.00 | 0.00 | 0.00 | 42 | 1013.0 |
| 20260507013026 | 48 | 98 | 3.0 | 10.0 | 0.00 | 0.00 | 0.00 | 40 | 1013.0 |
| 20260507011529 | 49 | 82 | 2.0 | 4.0 | 0.00 | 0.00 | 0.00 | 38 | 1013.0 |
| 20260507010022 | 49 | 82 | 2.0 | 5.0 | 0.00 | 0.00 | 0.00 | 36 | 1013.1 |
| 20260507004524 | 49 | 74 | 2.0 | 7.0 | 0.00 | 0.00 | 0.00 | 36 | 1013.1 |
| 20260507003012 | 50 | 74 | 2.0 | 8.0 | 0.00 | 0.00 | 0.00 | 36 | 1013.2 |
| 20260507001514 | 51 | 9 | 1.0 | 7.0 | 0.00 | 0.00 | 0.00 | 37 | 1013.3 |
| 20260507000028 | 51 | 317 | 2.0 | 5.0 | 0.00 | 0.00 | 0.00 | 37 | 1013.4 |
| 20260506234526 | 50 | 33 | 1.0 | 5.0 | 0.00 | 0.00 | 0.00 | 37 | 1013.6 |
| 20260506233012 | 51 | 32 | 0.0 | 5.0 | 0.00 | 0.00 | 0.00 | 36 | 1013.7 |
| 20260506231519 | 51 | 53 | 2.0 | 8.0 | 0.00 | 0.00 | 0.00 | 37 | 1013.8 |
| 20260506230026 | 51 | 17 | 4.0 | 10.0 | 0.00 | 0.00 | 0.00 | 36 | 1013.9 |
| 20260506224526 | 50 | 33 | 0.0 | 11.0 | 0.00 | 0.00 | 0.00 | 37 | 1013.9 |
| 20260506223013 | 50 | 82 | 4.0 | 12.0 | 0.00 | 0.00 | 0.00 | 35 | 1014.1 |
| 20260506221520 | 50 | 38 | 1.0 | 12.0 | 0.00 | 0.00 | 0.00 | 36 | 1014.1 |
| 20260506220026 | 50 | 44 | 3.0 | 10.0 | 0.00 | 0.00 | 0.00 | 36 | 1014.3 |
| 20260506214527 | 52 | 44 | 3.0 | 13.0 | 0.00 | 0.00 | 0.00 | 35 | 1014.4 |
| 20260506213026 | 52 | 48 | 1.0 | 11.0 | 0.00 | 0.00 | 0.00 | 39 | 1014.4 |
| 20260506211519 | 51 | 347 | 2.0 | 11.0 | 0.00 | 0.00 | 0.00 | 35 | 1014.7 |
| 20260506210023 | 51 | 9 | 5.0 | 12.0 | 0.00 | 0.00 | 0.00 | 36 | 1014.9 |
| 20260506204528 | 50 | 22 | 1.0 | 8.0 | 0.00 | 0.00 | 0.00 | 37 | 1015.1 |
| 20260506203035 | 50 | 360 | 3.0 | 11.0 | 0.00 | 0.00 | 0.00 | 37 | 1015.4 |
| 20260506201502 | 50 | 35 | 1.0 | 10.0 | 0.00 | 0.00 | 0.00 | 41 | 1015.5 |
| 20260506200006 | 50 | 342 | 1.0 | 14.0 | 0.00 | 0.00 | 0.00 | 40 | 1015.6 |
| 20260506194513 | 50 | 355 | 1.0 | 13.0 | 0.00 | 0.00 | 0.00 | 39 | 1015.8 |
| 20260506193019 | 49 | 28 | 1.0 | 10.0 | 0.00 | 0.00 | 0.00 | 41 | 1015.9 |
| 20260506191505 | 48 | 355 | 6.0 | 11.0 | 0.00 | 0.00 | 0.00 | 41 | 1016.0 |
| 20260506190008 | 48 | 5 | 2.0 | 13.0 | 0.00 | 0.00 | 0.00 | 39 | 1016.1 |
| 20260506184512 | 49 | 338 | 1.0 | 10.0 | 0.00 | 0.00 | 0.00 | 40 | 1016.2 |
| 20260506183017 | 48 | 11 | 4.0 | 12.0 | 0.00 | 0.00 | 0.00 | 40 | 1016.4 |
| 20260506181503 | 48 | 352 | 2.0 | 14.0 | 0.00 | 0.00 | 0.00 | 42 | 1016.6 |
| 20260506180009 | 48 | 21 | 3.0 | 10.0 | 0.00 | 0.00 | 0.00 | 43 | 1016.8 |
| 20260506174516 | 47 | 5 | 3.0 | 10.0 | 0.00 | 0.00 | 0.00 | 41 | 1017.2 |
| 20260506173021 | 47 | 13 | 1.0 | 15.0 | 0.00 | 0.00 | 0.00 | 43 | 1017.4 |
| 20260506171504 | 47 | 360 | 5.0 | 11.0 | 0.00 | 0.00 | 0.00 | 41 | 1017.5 |
| 20260506170012 | 46 | 360 | 3.0 | 12.0 | 0.00 | 0.00 | 0.00 | 43 | 1017.5 |
| 20260506164518 | 45 | 348 | 2.0 | 16.0 | 0.00 | 0.00 | 0.00 | 42 | 1017.6 |
| 20260506163022 | 45 | 26 | 4.0 | 10.0 | 0.00 | 0.00 | 0.00 | 43 | 1017.7 |
| 20260506161511 | 45 | 67 | 3.0 | 11.0 | 0.00 | 0.00 | 0.00 | 43 | 1017.8 |
| 20260506160014 | 45 | 15 | 3.0 | 11.0 | 0.00 | 0.00 | 0.00 | 44 | 1017.8 |
| 20260506154523 | 45 | 330 | 1.0 | 14.0 | 0.00 | 0.00 | 0.00 | 44 | 1017.9 |
| 20260506153025 | 44 | 5 | 2.0 | 10.0 | 0.00 | 0.00 | 0.00 | 46 | 1017.9 |
| 20260506151509 | 43 | 43 | 3.0 | 8.0 | 0.00 | 0.00 | 0.00 | 47 | 1017.9 |
| 20260506150012 | 42 | 311 | 0.0 | 7.0 | 0.00 | 0.00 | 0.00 | 54 | 1018.0 |
| 20260506144519 | 42 | 352 | 2.0 | 5.0 | 0.00 | 0.00 | 0.00 | 51 | 1018.0 |
| 20260506143024 | 41 | 5 | 0.0 | 3.0 | 0.00 | 0.00 | 0.00 | 52 | 1018.1 |
| 20260506141526 | 41 | 5 | 1.0 | 4.0 | 0.00 | 0.00 | 0.00 | 54 | 1018.2 |
| 20260506140019 | 41 | 5 | 0.0 | 3.0 | 0.00 | 0.00 | 0.00 | 57 | 1018.3 |
| 20260506134543 | 41 | 5 | 0.0 | 4.0 | 0.00 | 0.00 | 0.00 | 53 | 1018.3 |
| 20260506133025 | 39 | 5 | 1.0 | 3.0 | 0.00 | 0.00 | 0.00 | 58 | 1018.1 |
| 20260506131527 | 39 | 44 | 1.0 | 4.0 | 0.00 | 0.00 | 0.00 | 58 | 1018.1 |
| 20260506130018 | 37 | 44 | 0.0 | 3.0 | 0.00 | 0.00 | 0.00 | 59 | 1017.9 |
| 20260506124521 | 37 | 44 | 1.0 | 3.0 | 0.00 | 0.00 | 0.00 | 59 | 1017.9 |
| 20260506123026 | 36 | 44 | 0.0 | 2.0 | 0.00 | 0.00 | 0.00 | 60 | 1017.6 |
| 20260506121527 | 35 | 44 | 0.0 | 2.0 | 0.00 | 0.00 | 0.00 | 61 | 1017.5 |
| 20260506120019 | 35 | 44 | 0.0 | 2.0 | 0.00 | 0.00 | 0.00 | 62 | 1017.2 |
| 20260506114533 | 35 | 44 | 1.0 | 3.0 | 0.00 | 0.00 | 0.00 | 63 | 1017.2 |
| 20260506113033 | 34 | 44 | 0.0 | 3.0 | 0.00 | 0.00 | 0.00 | 64 | 1017.1 |
| 20260506111511 | 34 | 44 | 0.0 | 1.0 | 0.00 | 0.00 | 0.00 | 65 | 1017.0 |
| 20260506110009 | 34 | 44 | 0.0 | 3.0 | 0.00 | 0.00 | 0.00 | 65 | 1017.0 |
| 20260506104503 | 34 | 44 | 0.0 | 2.0 | 0.00 | 0.00 | 0.00 | 66 | 1016.9 |
| 20260506103019 | 34 | 44 | 0.0 | 0.0 | 0.00 | 0.00 | 0.00 | 65 | 1016.8 |
| 20260506101511 | 35 | 44 | 0.0 | 0.0 | 0.00 | 0.00 | 0.00 | 65 | 1016.8 |
| 20260506100004 | 35 | 44 | 0.0 | 0.0 | 0.00 | 0.00 | 0.00 | 65 | 1016.8 |
| 20260506094504 | 35 | 44 | 0.0 | 3.0 | 0.00 | 0.00 | 0.00 | 64 | 1016.9 |
| 20260506093010 | 35 | 44 | 0.0 | 0.0 | 0.00 | 0.00 | 0.00 | 64 | 1016.8 |
| 20260506091516 | 35 | 44 | 0.0 | 2.0 | 0.00 | 0.00 | 0.00 | 63 | 1016.7 |
| 20260506090006 | 35 | 44 | 0.0 | 3.0 | 0.00 | 0.00 | 0.00 | 63 | 1016.6 |